Flag for Germany Weather past 2 weeks in Rastatt, Baden-Württemberg, Germany

Now
59 °F

Scattered showers. Broken clouds.


Feels Like: 58 °F
Forecast: 45 / 66 °F
Wind: 7 mph from Southwest

Location: Karlsruhe - Baden Wurttemberg

Current Time: Aug 23, 2014 at 3:42:43 PM

Latest Report: Aug 23, 2014 at 3:20 PM


Visibility: N/A

Pressure: 29.98 "Hg

Humidity: 77%

Dew point: 52 °F

Location of RastattLocation

Historic Weather in Rastatt — Graph

°F

Rastatt temperature yesterday

Maximum temperature yesterday: 70 °F (at 5:20 PM)
Minimum temperature yesterday: 48 °F (at 3:50 AM)
Average temperature yesterday: 59 °F

Past Weeks' High & Low Weather Summary

 TemperatureHumidityPressure
High82 °F (Aug 10, 3:50 PM)94% (Aug 10, 2:50 AM)30.15 "Hg (Aug 10, 2:50 AM)
Low46 °F (Aug 20, 6:50 AM)33% (Aug 11, 6:20 PM)29.65 "Hg (Aug 13, 9:50 AM)
Average63 °F68%29.94 "Hg
* Reported Aug 8 2:20 PM — Aug 23 2:20 PM, Rastatt, Weather by CustomWeather, © 2014

Note: Actual official high and low records may vary slightly from our data, if they occured in-between our weather recording intervals... More about our weather records

Advertising

Rastatt weather history for previous 24 hours

 ConditionsComfort  
Time TempWeatherWind HumidityBarometerVisibility
2:20 PM
Aug 23
64 °FRain showers. Broken clouds.8 mph64%29.98 "Hg4 mi
1:50 PM64 °FScattered showers. Scattered clouds.6 mph64%29.98 "HgN/A
1:20 PM63 °FScattered showers. Scattered clouds.6 mph68%29.98 "HgN/A
12:50 PM63 °FSprinkles. Scattered clouds.7 mph68%29.98 "HgN/A
12:20 PM66 °FScattered clouds.6 mph56%29.98 "HgN/A
11:50 AM63 °FPartly sunny.5 mph64%29.98 "HgN/A
11:20 AM64 °FScattered clouds.8 mph60%29.98 "HgN/A
10:50 AM64 °FScattered clouds.9 mph60%29.98 "HgN/A
10:20 AM64 °FScattered clouds.8 mph60%29.98 "HgN/A
9:50 AM63 °FSunny.9 mph64%29.98 "Hg10 mi
9:20 AM59 °FSunny.7 mph72%29.98 "Hg10 mi
8:50 AM57 °FSunny.7 mph77%29.98 "Hg10 mi
8:20 AM57 °FSunny.6 mph77%29.98 "Hg10 mi
7:50 AM55 °FSunny.8 mph77%29.98 "Hg10 mi
7:20 AM55 °FClear.6 mph77%29.98 "Hg10 mi
6:50 AM55 °FClear.5 mph77%29.98 "Hg10 mi
6:20 AM55 °FClear.6 mph77%29.98 "Hg10 mi
5:50 AM55 °FClear.8 mph77%29.98 "Hg10 mi
5:20 AM55 °FPartly cloudy.6 mph77%29.98 "HgN/A
4:50 AM55 °FPassing clouds.7 mph77%29.98 "HgN/A
11:20 PM
Aug 22
59 °FClear.6 mph63%29.95 "Hg10 mi
10:50 PM59 °FClear.6 mph68%29.95 "Hg10 mi
10:20 PM59 °FClear.5 mph63%29.95 "Hg10 mi
9:50 PM59 °FClear.3 mph63%29.95 "Hg10 mi
9:20 PM59 °FSunny.5 mph68%29.95 "Hg6 mi
8:50 PM63 °FSunny.5 mph56%29.95 "Hg10 mi
8:20 PM64 °FSunny.3 mph52%29.95 "Hg10 mi
7:50 PM68 °FSunny.2 mph46%29.95 "Hg10 mi
7:20 PM68 °FSunny.3 mph46%29.95 "Hg10 mi
6:50 PM68 °FSunny.2 mph43%29.95 "Hg10 mi
6:20 PM70 °FSunny.3 mph40%29.95 "Hg10 mi
5:50 PM68 °FPassing clouds.5 mph40%29.95 "HgN/A
5:20 PM70 °FSunny.3 mph40%29.95 "Hg10 mi
4:50 PM68 °FSunny.1 mph43%29.95 "Hg10 mi
4:20 PM68 °FSunny.3 mph43%29.95 "Hg10 mi
3:50 PM68 °FSunny.2 mph40%29.98 "Hg10 mi
3:20 PM68 °FSunny.1 mph40%29.98 "Hg10 mi
Weather by CustomWeather, © 2014

See weather overviewHow to use our weather pages